星链-32098 (STARLINK-32098 )

导读

STARLINK-32098是美国太空探索技术公司(SpaceX)于北京时间2024年5月8日发射的星链(Starlink)卫星,属于星链第二代星座部署计划中的组网卫星。星链项目旨在构建全球卫星互联网,为偏远地区、航空航海等场景提供高速宽带服务。该卫星运行在近地轨道,可通过星间链路实现数据传输,进一步扩大星链星座的全球覆盖范围,助力星链互联网服务能力提升。截至2026年3月,STARLINK-32098已在轨运行近2年,为全球星链用户提供通信支持。

基本信息
目录编号:
59704
目录名称:
STARLINK-32098
国际标识:
2024-086Y
轨道中心:
EARTH
卫星名称:
星链-32098
卫星全名:
星链-32098 (STARLINK-32098 )
卫星状态:
在轨 (已飞行771 天)
发射日期:
2024-05-08 UTC
国别 :
美国 (US)
星等 :
--
轨道信息
数据来源 国际轨道数据
星历时间: 2026-06-17T04:10:49+0800
1天前
查看轨道信息
半长轴: 6861.026km
偏心率: 0.0002338
轨道倾角: 42.997°
近地点辐角 270.597°
升交点赤经 220.146°
平近点角 89.462°
近地点: 481.284km
远地点: 484.494km
周期: 94.263分钟
每日圈数: 15.276337
详细信息
固有亮度:
5
最大亮度:
1.5
卫星平台:
Starlink v2.0 mini
覆盖范围:
全球
运营商:
太空探索技术公司
运营商所在国:
美国
制造商(研发单位):
太空探索技术公司
制造商所在国:
美国
使用方式:
暂无
卫星简介
星链(Starlink)计划是由太空探索技术公司(SpaceX)提出的一个巨型低轨卫星互联网星座项目,计划在2019年至2024年间在太空搭建由约1.2万颗卫星组成的“星链”网络,其中1584颗将部署在地球上空550千米处的近地轨道,并从2020年开始工作。该卫星仍在工作。
2D轨道图
3D轨道图
轨道高度分析图
轨道倾角分析图
轨道综合分析图
查看轨道综合分析图